Regional Weather Roundup
Issued by NWS

Home | Current Version | Previous Version | Graphics & Text | Print | Product List | Glossary On
Versions: 1 2 3 4 5 6 7 8 9 10 11 12 13 14 15 16 17 18 19 20 21 22 23 24 25 26 27 28 29 30 31 32 33 34 35 36 37 38 39 40 41 42 43 44 45 46 47 48 49 50
000
ASUS43 KDMX 212106
RWRIA

WEATHER ROUNDUP FOR IOWA
NATIONAL WEATHER SERVICE DES MOINES IA
300 PM CST WED FEB 21 2018

NOTE: "FAIR" INDICATES FEW OR NO CLOUDS BELOW 12,000 FEET WITH NO
SIGNIFICANT WEATHER AND/OR OBSTRUCTIONS TO VISIBILITY.

* - THESE STATIONS ARE NOT NWS STATIONS...THUS NOT UNDER NWS
QUALITY CONTROL.  THEY ALSO DO NOT REPORT WEATHER SUCH
AS PRECIPITATION OR FOG.

IAZ001>003-012>014-020>022-031>034-043>046-212200-
   NORTHWEST IOWA

CITY           SKY/WX    TMP DP  RH WIND       PRES   REMARKS
CARROLL *      FAIR      21  10  63 NE8       30.58F WCI  12
CHEROKEE *     FAIR      22  10  59 E3        30.59S
DENISON *      FAIR      23  10  58 VRB6      30.59F WCI  16
LE MARS *      FAIR      18   5  57 CALM      30.59F
ORANGE CITY *  FAIR      18   9  68 S3        30.58F
SHELDON *      FAIR      18   3  53 CALM      30.57S
SIOUX CITY     FAIR      21   3  45 E5        30.60F WCI  15
SPENCER        MIX PCPN  19   7  59 SW5       30.59F WCI  12
STORM LAKE *   FAIR      19  10  68 SE3       30.56F
$$

IAZ055>058-069>071-079>083-090>094-212200-
   SOUTHWEST IOWA

CITY           SKY/WX    TMP DP  RH WIND       PRES   REMARKS
ATLANTIC *     FAIR      25  14  63 NE9G15    30.57F WCI  15
AUDUBON *      FAIR      21  14  73 CALM      30.57F
CLARINDA *     FAIR      27  18  69 NE12      30.57F WCI  16
COUNCIL BLFS * FAIR      23  14  68 NE8       30.56F WCI  14
CRESTON *      FAIR      27  19  74 NE14      30.56F WCI  15
HARLAN  *      FAIR      23  16  74 NE9       30.61F WCI  13
LAMONI         FAIR      26  20  77 N15       30.54F WCI  14
RED OAK *      FAIR      27  14  59 NE12      30.56F WCI  16
SHENANDOAH *   FAIR      27  18  69 NE13      30.56F WCI  16
$$

IAZ047>049-059>061-072>074-084-212200-
   CENTRAL IOWA

CITY           SKY/WX    TMP DP  RH WIND       PRES   REMARKS
AMES           FAIR      24  15  68 N10       30.60F WCI  14
ANKENY *       FAIR      23  16  74 NE9       30.61F WCI  13
BOONE *        FAIR      21  12  68 MISG      30.58F
CHARITON *     PTSUNNY   27  21  80 NE9       30.57S WCI  17
DES MOINES     PTSUNNY   26  15  63 NE9       30.59F WCI  17
GRINNELL*      FAIR      25  18  73 NE10      30.60F WCI  15
KNOXVILLE *    FAIR      27  18  69 N10       30.58S WCI  17
MARSHALLTOWN   FAIR      23  14  68 N10       30.59F WCI  12
NEWTON *       FAIR      25  18  74 N13       30.59F WCI  13
PELLA *        FAIR      28  20  74 N8        30.61S WCI  19
PERRY *        FAIR      23  15  72 N8        30.60F WCI  13
$$

IAZ004>006-015-016-023>025-035-036-212200-
   NORTH CENTRAL IOWA

CITY           SKY/WX    TMP DP  RH WIND       PRES   REMARKS
ALGONA *       FAIR      21 N/A N/A CALM      30.60F
CLARION *      FAIR      19  12  73 N3        30.61F
ESTHERVILLE    FAIR      16   4  59 CALM      30.59F
FORT DODGE *   FAIR      24   8  50 VRB5      30.61F WCI  18
MASON CITY     FAIR      21  10  62 VRB6      30.62F WCI  13
FOREST CITY *  FAIR      21  12  68 NW3       30.60F
WEBSTER CITY * FAIR      19   7  58 N6        30.59F WCI  11
IOWA FALLS *   FAIR      22  13  69 N7        30.61F WCI  14
$$

IAZ007>011-017>019-026>030-037>042-050>054-066-212200-
   NORTHEAST IOWA

CITY           SKY/WX    TMP DP  RH WIND       PRES   REMARKS
CEDAR RAPIDS   FAIR      27  11  51 N10       30.58F WCI  17
CHARLES CITY * FAIR      21  12  68 N7        30.62F WCI  13
DECORAH *      FAIR      23  12  63 NW5       30.59F WCI  17
DUBUQUE        FAIR      25  11  55 NE9       30.58F WCI  15
MONTICELLO *   FAIR      25  14  63 N9        30.60F WCI  15
OELWEIN *      FAIR      23  14  68 N7        30.61F WCI  15
WATERLOO       FAIR      23  12  62 VRB5      30.62F WCI  17
$$

IAZ064-065-067-068-078-212200-
   EAST CENTRAL IOWA

CITY           SKY/WX    TMP DP  RH WIND       PRES   REMARKS
DAVENPORT      FAIR      29  18  63 N10       30.61F WCI  20
IOWA CITY      FAIR      30  14  51 N9        30.61F WCI  22
MT. PLEASANT * FAIR      28  18  64 N14       30.58S WCI  17
MUSCATINE *    FAIR      30  16  55 N10       30.60F WCI  21
QUAD CITIES    FAIR      31  19  61 N8        30.59F WCI  23
$$

IAZ062-063-075>077-085>089-095>099-212200-
   SOUTHEAST IOWA

CITY           SKY/WX    TMP DP  RH WIND       PRES   REMARKS
BURLINGTON     FAIR      31  19  61 NE13      30.56F WCI  21
FAIRFIELD *    FAIR      28  14  54 N12       30.57F WCI  18
FORT MADISON * FAIR      28  19  69 N10G16    30.56F WCI  19
KEOKUK *       FAIR      28  19  69 N10G18    30.54F WCI  19
OSKALOOSA *    FAIR      26  19  77 NE9       30.59F WCI  16
OTTUMWA        FAIR      27  18  69 N12       30.58F WCI  17
WASHINGTON *   FAIR      27  18  69 N10       30.59F WCI  17
$$

ABBREVIATIONS USED IN REMARKS
   TC - TEMPERATURES IN CELSIUS
  WCI - WIND CHILL INDEX
   HX - HEAT INDEX
  VSB - VISIBILITY
$$





USA.gov is the U.S. government's official web portal to all federal, state and local government web resources and services.